Weather History for Tekamah, NE

Change the Weather History Date:

Tuesday, May 6, 2014

  Actual Average Record
Temperature  
Mean Temperature 66 °F -  
Max Temperature 81 °F 71 °F 91 °F (1966)
Min Temperature 51 °F 48 °F 33 °F (1989)
Growing Degree Days 16 (Base 50)    
Moisture  
Dew Point 48 °F    
Average Humidity 47    
Maximum Humidity 61    
Minimum Humidity 36    
Precipitation  
Precipitation 0.00 in - - ()
Sea Level Pressure  
Sea Level Pressure 29.60 in    
Wind  
Wind Speed 13 mph (ESE)    
Max Wind Speed 21 mph    
Max Gust Speed 30 mph    
Visibility 10 miles    
Events      
Averages and records for this station are not official NWS values.
T = Trace of Precipitation, MM = Missing Value Source: NWS Daily Summary

Daily Weather History Graph

Daily Weather History Graph

Search for Another Location

Airport:

Trip Planner

Search our weather history database for the weather conditions in past years. The results will help you decide how hot, cold, wet, or windy it might be!

Date:

Astronomy

May. 06, 2014 Rise Set
Actual Time 6:14 AM CDT 8:28 PM CDT
Civil Twilight 5:44 AM CDT 8:59 PM CDT
Nautical Twilight 5:06 AM CDT 9:37 PM CDT
Astronomical Twilight 4:24 AM CDT 10:19 PM CDT
Moon 12:32 PM CDT (5/6) 1:47 AM CDT (5/6)
Length of Visible Light 15h 15m
Length of Day
14h 13m
Waxing Crescent, 46% of the Moon is Illuminated
May 6
Waxing Crescent
May 6
First Quarter
May 14
Full
May 21
Last Quarter
May 28
New

Hourly Weather History & Observations

Time (CDT) Temp. Heat Index Dew Point Humidity Pressure Visibility Wind Dir Wind Speed Gust Speed Precip Events Conditions
12:54 AM 57.0 °F - 41.0 °F 55% 29.78 in 10.0 mi ESE 9.2 mph - N/A   Clear
1:54 AM 55.9 °F - 41.0 °F 57% 29.76 in 10.0 mi ESE 10.4 mph - N/A   Clear
2:54 AM 55.0 °F - 39.0 °F 55% 29.72 in 10.0 mi ESE 11.5 mph - N/A   Clear
6:54 AM 51.1 °F - 37.9 °F 61% 29.71 in 10.0 mi East 9.2 mph - N/A   Clear
9:54 AM 63.0 °F - 42.1 °F 46% 29.69 in 10.0 mi ESE 13.8 mph - N/A   Clear
10:54 AM 66.0 °F - 43.0 °F 43% 29.69 in 10.0 mi ENE 13.8 mph - N/A   Clear
11:54 AM 70.0 °F - 45.0 °F 41% 29.64 in 10.0 mi East 17.3 mph - N/A   Clear
12:54 PM 73.9 °F - 46.9 °F 38% 29.60 in 10.0 mi East 18.4 mph 29.9 mph N/A   Clear
1:54 PM 78.1 °F - 48.9 °F 36% 29.57 in 10.0 mi ESE 17.3 mph 27.6 mph N/A   Clear
2:54 PM 80.1 °F - 51.1 °F 36% 29.55 in 10.0 mi SE 20.7 mph 27.6 mph N/A   Clear
3:54 PM 80.1 °F - 51.1 °F 36% 29.53 in 10.0 mi SE 19.6 mph 28.8 mph N/A   Clear
4:54 PM 80.1 °F - 52.0 °F 38% 29.52 in 10.0 mi SE 19.6 mph 28.8 mph N/A   Clear
5:54 PM 80.1 °F 79.9 °F 53.1 °F 39% 29.51 in 10.0 mi ESE 17.3 mph - N/A   Clear
6:54 PM 80.1 °F 80.0 °F 54.0 °F 40% 29.52 in 10.0 mi SE 13.8 mph - N/A   Mostly Cloudy
7:54 PM 75.0 °F - 54.0 °F 48% 29.52 in 10.0 mi East 9.2 mph - N/A   Partly Cloudy
8:54 PM 72.0 °F - 54.0 °F 53% 29.52 in 10.0 mi ENE 12.7 mph - N/A   Clear
9:54 PM 71.1 °F - 53.1 °F 53% 29.53 in 10.0 mi ENE 12.7 mph - N/A   Clear
10:54 PM 70.0 °F - 52.0 °F 53% 29.53 in 10.0 mi ENE 13.8 mph - N/A   Clear
11:54 PM 68.0 °F - 52.0 °F 56% 29.52 in 10.0 mi ESE 6.9 mph - N/A   Clear